This demonstration page uses our WeatherBlox Daily Observations layout. Learn more.

Left ArrowRight Arrow

36.19886, -115.1175

Hourly Observations for October 3, 2020

Temp ( °F °C ) Dew Point ( °F °C ) Humidity (%) Winds ( mph kmh ) Pressure ( in mb ) Visibility ( mi km ) Precip ( " mm )
12:53 am 00:53 Clear 80 26.7 11 -11.7 7 7 Calm 29.88 1012 10 16 0.00 0.00
1:53 am 01:53 Clear 75 23.9 18 -7.8 11 11 W 3 6 29.90 1012 10 16 0.00 0.00
2:53 am 02:53 Clear 73 22.8 20 -6.7 13 13 Calm 29.90 1013 10 16 0.00 0.00
3:53 am 03:53 Clear 73 22.8 19 -7.2 13 13 W 8 13 29.90 1013 10 16 0.00 0.00
4:53 am 04:53 Clear 72 22.2 18 -7.8 13 13 W 3 6 29.91 1013 10 16 0.00 0.00
5:53 am 05:53 Clear 70 21.1 17 -8.3 13 13 WNW 3 6 29.93 1014 10 16 0.00 0.00
6:53 am 06:53 Sunny 67 19.4 17 -8.3 15 15 WNW 10 17 29.95 1014 10 16 0.00 0.00
7:53 am 07:53 Sunny 74 23.3 20 -6.7 13 13 NNW 6 9 29.96 1015 10 16 0.00 0.00
8:53 am 08:53 Sunny 82 27.8 15 -9.4 8 8 WNW 6 9 29.97 1015 10 16 0.00 0.00
9:53 am 09:53 Sunny 87 30.6 13 -10.6 6 6 N 7 11 29.97 1015 10 16 0.00 0.00
10:53 am 10:53 Sunny 89 31.7 15 -9.4 6 6 E 6 9 29.97 1015 10 16 0.00 0.00
11:53 am 11:53 Sunny 92 33.3 14 -10 5 5 SSE 3 6 29.95 1014 10 16 0.00 0.00
12:53 pm 12:53 Sunny 94 34.4 14 -10 5 5 ESE 3 6 29.93 1014 10 16 0.00 0.00
1:53 pm 13:53 Sunny 95 35 15 -9.4 5 5 SSW 3 6 29.91 1013 10 16 0.00 0.00
2:53 pm 14:53 Sunny 97 36.1 15 -9.4 5 5 S 6 9 29.89 1012 10 16 0.00 0.00
3:53 pm 15:53 Sunny 97 36.1 13 -10.6 4 4 SSE 5 7 29.87 1012 10 16 0.00 0.00
4:53 pm 16:53 Sunny 98 36.7 14 -10 4 4 WSW 6 9 29.86 1011 10 16 0.00 0.00
5:53 pm 17:53 Sunny 97 36.1 13 -10.6 4 4 Calm 29.86 1011 10 16 0.00 0.00
6:53 pm 18:53 Clear 91 32.8 21 -6.1 8 8 W 3 6 29.87 1012 10 16 0.00 0.00
7:53 pm 19:53 Clear 86 30 26 -3.3 11 11 W 6 9 29.88 1012 10 16 0.00 0.00
8:53 pm 20:53 Clear 82 27.8 23 -5 11 11 WNW 7 11 29.89 1012 10 16 0.00 0.00
9:53 pm 21:53 Clear 80 26.7 23 -5 12 12 WNW 8 13 29.90 1012 10 16 0.00 0.00
10:53 pm 22:53 Clear 77 25 20 -6.7 12 12 WNW 7 11 29.91 1013 10 16 0.00 0.00
11:53 pm 23:53 Clear 77 25 22 -5.6 13 13 W 7 11 29.90 1013 10 16 0.00 0.00

Powered by AerisWeather